Orbital Elements at Epoch 2459000.5 (2020-May-31.0) TDB
Reference: JPL 7 (heliocentric ecliptic J2000)
Element | Value | Uncertainty (1-sigma) | Units |
e | .348340872710496 | 6.6196e-08 | |
a | 2.586554624827867 | 5.5725e-08 | au |
q | 1.685551929501958 | 1.7565e-07 | au |
i | 6.004140101468648 | 1.2503e-05 | deg |
node | 49.26420432426376 | 7.8559e-05 | deg |
peri | 309.7644186916273 | 9.7346e-05 | deg |
M | 276.770675236245 | 6.8815e-05 | deg |
tp | 2459351.781096112887 (2021-May-17.28109611) | 0.00030157 | TDB |
period | 1519.430741023037 4.16 | 4.9102e-05 1.344e-07 | d yr |
n | .2369308388203407 | 7.6567e-09 | deg/d |
Q | 3.487557320153775 | 7.5137e-08 | au |
|
| | Orbit Determination Parameters
Additional Information
|